ポローニア彗星

C/2015 F2 ( Polonia )

English version
Home page
Updated on May 29, 2016

---------------------------------------------------------------------

・ プロフィール

発見日 2015年3月23日
発見光度 16.8等
発見者 Polonia Observatory at San Pedro de Atacama, Chile

・ 写真集

・ 軌道要素

Epoch 2015 May 18.0 TT = JDT 2457160.5
T 2015 Apr. 28.82366 TT                                 MPCW
q   1.2105492            (2000.0)            P               Q
z  +0.0260808      Peri.  352.03408     -0.24892567     +0.84343910
 +/-0.0000000      Node   262.55141     -0.86003545     -0.41854223
e   0.9684279      Incl.   28.69360     -0.44539313     +0.33679798
From 270 observations 2015 Mar. 23-July 26, mean residual 0".6.

・ 星図

・ 光度変化

        m1 = 13.0 + 5 logΔ + 20.0 log r

---------------------------------------------------------------------

軌道要素はM.P.E.C. 2015-S97に掲載されたものです。
星図はステラナビゲータ Ver.8 (アストロアーツ) で作成したものです。
光度グラフはComet for Windowsで作成したものです。

---------------------------------------------------------------------

Copyright(C) Seiichi Yoshida (comet@aerith.net). All rights reserved.